Weather History for Hill City, KS

Change the Weather History Date:

Sunday, December 9, 2012

  Actual Average Record
Temperature  
Mean Temperature 25 °F 31 °F  
Max Temperature 40 °F 44 °F 70 °F (1957)
Min Temperature 10 °F 19 °F -14 °F (1919)
Degree Days  
Heating Degree Days 40    
Moisture  
Dew Point 8 °F    
Average Humidity 49    
Maximum Humidity 64    
Minimum Humidity 37    
Precipitation  
Precipitation 0.00 in 0.02 in 0.01 in (2003)
Month to date precipitation 0.00 0.32  
Year to date precipitation 9.74 22.55  
Sea Level Pressure  
Sea Level Pressure 30.16 in    
Wind  
Wind Speed 18 mph (NNW)    
Max Wind Speed 28 mph    
Max Gust Speed 37 mph    
Visibility 10 miles    
Events      
T = Trace of Precipitation, MM = Missing Value Source: NWS Daily Summary

Daily Weather History Graph

Daily Weather History Graph

Search for Another Location

Airport:

Trip Planner

Search our weather history database for the weather conditions in past years. The results will help you decide how hot, cold, wet, or windy it might be!

Date:

Astronomy

Dec. 09, 2012 Rise Set
Actual Time 7:48 AM CST 5:15 PM CST
Civil Twilight 7:17 AM CST 5:45 PM CST
Nautical Twilight 6:44 AM CST 6:19 PM CST
Astronomical Twilight 6:11 AM CST 6:52 PM CST
Moon 3:23 AM CST (12/9) 2:22 PM CST (12/9)
Length of Visible Light 10h 27m
Length of Day
9h 27m
Waning Crescent, 18% of the Moon is Illuminated
Dec 9
Waning Crescent
Dec 13
New
Dec 19
First Quarter
Dec 28
Full
Jan 4
Last Quarter

Hourly Weather History & Observations

Time (CST) Temp. Windchill Dew Point Humidity Pressure Visibility Wind Dir Wind Speed Gust Speed Precip Events Conditions
12:53 AM 39.9 °F 32.1 °F 24.1 °F 53% 29.91 in 10.0 mi NW 13.8 mph 20.7 mph N/A   Overcast
1:53 AM 39.0 °F 31.8 °F 21.0 °F 49% 29.90 in 10.0 mi NNW 11.5 mph - N/A   Overcast
2:53 AM 39.0 °F 29.3 °F 21.0 °F 49% 29.92 in 10.0 mi NNW 19.6 mph 25.3 mph N/A   Overcast
3:53 AM 37.0 °F 27.4 °F 21.9 °F 54% 29.95 in 10.0 mi NW 17.3 mph 24.2 mph N/A   Overcast
4:53 AM 35.1 °F 25.2 °F 18.0 °F 50% 29.97 in 10.0 mi NW 16.1 mph 20.7 mph N/A   Overcast
5:53 AM 30.9 °F 19.1 °F 12.9 °F 47% 30.03 in 10.0 mi NNW 18.4 mph 26.5 mph N/A   Overcast
6:53 AM 28.0 °F 14.9 °F 10.9 °F 49% 30.07 in 10.0 mi NNW 19.6 mph 31.1 mph N/A   Overcast
7:53 AM 26.1 °F 11.0 °F 9.0 °F 49% 30.11 in 10.0 mi NNW 24.2 mph 34.5 mph N/A   Overcast
8:53 AM 23.0 °F 6.9 °F 8.1 °F 53% 30.16 in 10.0 mi NNW 24.2 mph 35.7 mph N/A   Overcast
9:53 AM 21.0 °F 5.0 °F 6.1 °F 53% 30.16 in 10.0 mi NNW 21.9 mph 35.7 mph N/A   Mostly Cloudy
10:53 AM 23.0 °F 6.0 °F 3.9 °F 44% 30.20 in 8.0 mi NNW 27.6 mph 36.8 mph N/A   Partly Cloudy
11:53 AM 23.0 °F 6.6 °F 3.0 °F 42% 30.20 in 10.0 mi NW 25.3 mph 35.7 mph N/A   Clear
12:53 PM 23.0 °F 6.3 °F 3.0 °F 42% 30.18 in 10.0 mi NNW 26.5 mph 36.8 mph N/A   Clear
1:53 PM 26.1 °F 11.6 °F 3.9 °F 39% 30.17 in 10.0 mi NNW 21.9 mph 33.4 mph N/A   Clear
2:53 PM 27.0 °F 13.5 °F 3.9 °F 37% 30.18 in 10.0 mi NW 19.6 mph 34.5 mph N/A   Clear
3:53 PM 26.1 °F 10.7 °F 3.9 °F 39% 30.19 in 10.0 mi NNW 25.3 mph 34.5 mph N/A   Clear
4:53 PM 24.1 °F 9.0 °F 3.9 °F 42% 30.24 in 10.0 mi NNW 21.9 mph 29.9 mph N/A   Clear
5:53 PM 21.0 °F 5.4 °F 3.9 °F 48% 30.27 in 10.0 mi NNW 20.7 mph 26.5 mph N/A   Mostly Cloudy
6:53 PM 19.0 °F 2.0 °F 3.9 °F 52% 30.30 in 10.0 mi NNW 23.0 mph 28.8 mph N/A   Clear
7:53 PM 17.1 °F 1.5 °F 3.0 °F 54% 30.33 in 10.0 mi NNW 17.3 mph - N/A   Clear
8:53 PM 15.1 °F -1.6 °F 1.0 °F 54% 30.35 in 10.0 mi NNW 18.4 mph - N/A   Clear
9:53 PM 14.0 °F -3.4 °F -0.0 °F 54% 30.35 in 10.0 mi NNW 19.6 mph - N/A   Clear
10:53 PM 12.0 °F -3.4 °F -0.0 °F 59% 30.36 in 10.0 mi NW 13.8 mph 20.7 mph N/A   Clear
11:53 PM 10.0 °F -2.9 °F -0.0 °F 64% 30.35 in 10.0 mi WNW 9.2 mph - N/A   Clear